Location: Briarstone Lake
(43.1454°N, 93.2359°W)
Time: 08:23:56
(UTC+00:00)

BlueWalker 3 - Pass Details

Date: 26 January 2026
Orbit: 450 x 461 km, 53.2° (Epoch: 11 February)

Event Time Altitude Azimuth Distance (km) Brightness Sun altitude
Rises 23:49:50 0° 253° (WSW) 2,451 8.3 -6.3°
Reaches altitude 10° 23:52:03 10° 261° (W) 1,580 6.2 -6.7°
Maximum altitude 23:55:25 40° 332° (NNW) 683 2.7 -7.3°
Drops below altitude 10° 23:58:48 10° 43° (NE) 1,584 3.9 -7.8°
Enters shadow 23:59:11 - 45° (NE) 1,731 4.1 -7.9°
